Regional Weather Roundup
Issued by NWS

Home | Current Version | Previous Version | Graphics & Text | Print | Product List | Glossary On
Versions: 1 2 3 4 5 6 7 8 9 10 11 12 13 14 15 16 17 18 19 20 21 22 23 24 25 26 27 28 29 30 31 32 33 34 35 36 37 38 39 40 41 42 43 44 45 46 47 48 49 50
000
ASUS43 KBIS 130510
RWRND

NORTH DAKOTA REGIONAL WEATHER ROUNDUP
NATIONAL WEATHER SERVICE BISMARCK ND
1100 PM CST FRI FEB 12 2016

NOTE: "FAIR" INDICATES FEW OR NO CLOUDS BELOW 12,000 FEET WITH NO
SIGNIFICANT WEATHER AND/OR OBSTRUCTIONS TO VISIBILITY.


NDZ001>003-009>011-017-130600-
NORTHWEST NORTH DAKOTA

CITY           SKY/WX    TMP DP  RH WIND       PRES   REMARKS
WILLISTON      LGT SNOW  11   5  77 SE10      30.35F WCI  -3
MINOT          CLOUDY     5  -6  60 SE8       30.49F WCI  -8
MINOT AFB      CLOUDY     3  -4  73 SE6       30.48F WCI  -8
$$

NDZ018>021-031>035-040>046-130600-
SOUTHWEST NORTH DAKOTA

CITY           SKY/WX    TMP DP  RH WIND       PRES   REMARKS
BISMARCK       CLOUDY     3  -5  69 E8        30.52F WCI -10
DICKINSON      CLOUDY    10   4  76 SE17      30.31S WCI  -8
GARRISON         N/A      5  -2  72 S13       30.47R WCI -12
HETTINGER ARPT CLOUDY    12   7  80 SE17G24   30.33F WCI  -5
$$

NDZ004>008-012>016-024-026-027-054-130600-
NORTHEAST NORTH DAKOTA

CITY           SKY/WX    TMP DP  RH WIND       PRES   REMARKS
GRAND FORKS    CLOUDY    -6 -12  75 CALM      30.67S
GRND FRKS AFB  CLOUDY   -10 -16  74 W2        30.66R
DEVILS LAKE    CLOUDY   -16 -20  82 CALM      30.58F
$$

NDZ022-023-025-028>030-036>039-047>053-130600-
SOUTHEAST NORTH DAKOTA

CITY           SKY/WX    TMP DP  RH WIND       PRES   REMARKS
FARGO          CLOUDY    -6 -13  71 NW5       30.68R WCI -17
JAMESTOWN      CLOUDY    -8 -13  78 S3        30.59S
$$




USA.gov is the U.S. government's official web portal to all federal, state and local government web resources and services.